| time (UTC) | temp F | wind direction | speed MPH | gust MPH | rain 1hr in | rain 24hr in | rain mn in | humidity % | barometer mb |
| 20260505221804 | 62 | 269 | 1.0 | 3.0 | 0.00 | 0.00 | 0.00 | 65 | 1015.8 |
| 20260505221304 | 62 | 79 | 1.0 | 3.0 | 0.00 | 0.00 | 0.00 | 65 | 1015.9 |
| 20260505220804 | 62 | 293 | 1.0 | 3.0 | 0.00 | 0.00 | 0.00 | 66 | 1016.0 |
| 20260505220522 | 61 | 293 | 0.0 | 3.0 | 0.00 | 0.00 | 0.00 | 65 | 1015.9 |
| 20260505215803 | 61 | 295 | 1.0 | 3.0 | 0.00 | 0.00 | 0.00 | 66 | 1016.0 |
| 20260505215305 | 61 | 290 | 1.0 | 3.0 | 0.00 | 0.00 | 0.00 | 66 | 1016.0 |
| 20260505215023 | 61 | 357 | 1.0 | 3.0 | 0.00 | 0.00 | 0.00 | 66 | 1016.1 |
| 20260505214303 | 61 | 316 | 1.0 | 3.0 | 0.00 | 0.00 | 0.00 | 66 | 1016.1 |
| 20260505213803 | 62 | 87 | 0.0 | 2.0 | 0.00 | 0.00 | 0.00 | 66 | 1016.1 |
| 20260505213303 | 62 | 87 | 0.0 | 2.0 | 0.00 | 0.00 | 0.00 | 66 | 1016.2 |
| 20260505212803 | 61 | 87 | 1.0 | 2.0 | 0.00 | 0.00 | 0.00 | 66 | 1016.2 |
| 20260505212305 | 61 | 87 | 0.0 | 2.0 | 0.00 | 0.00 | 0.00 | 68 | 1016.3 |
| 20260505211802 | 61 | 87 | 2.0 | 2.0 | 0.00 | 0.00 | 0.00 | 68 | 1016.3 |
| 20260505211302 | 61 | 92 | 0.0 | 2.0 | 0.00 | 0.00 | 0.00 | 67 | 1016.2 |
| 20260505210802 | 61 | 92 | 0.0 | 3.0 | 0.00 | 0.00 | 0.00 | 68 | 1016.1 |
| 20260505210302 | 60 | 92 | 1.0 | 3.0 | 0.00 | 0.00 | 0.00 | 68 | 1016.2 |
| 20260505205803 | 60 | 94 | 1.0 | 3.0 | 0.00 | 0.00 | 0.00 | 69 | 1016.1 |
| 20260505205524 | 60 | 94 | 1.0 | 3.0 | 0.00 | 0.00 | 0.00 | 69 | 1016.2 |
| 20260505204802 | 60 | 90 | 1.0 | 2.0 | 0.00 | 0.00 | 0.00 | 69 | 1016.2 |
| 20260505204301 | 60 | 90 | 0.0 | 2.0 | 0.00 | 0.00 | 0.00 | 69 | 1016.3 |
| 20260505203802 | 60 | 83 | 1.0 | 3.0 | 0.00 | 0.00 | 0.00 | 70 | 1016.2 |
| 20260505203520 | 60 | 83 | 1.0 | 3.0 | 0.00 | 0.00 | 0.00 | 69 | 1016.2 |
| 20260505203025 | 60 | 80 | 1.0 | 3.0 | 0.00 | 0.00 | 0.00 | 69 | 1016.3 |
| 20260505202302 | 60 | 78 | 0.0 | 2.0 | 0.00 | 0.00 | 0.00 | 69 | 1016.2 |
| 20260505201801 | 60 | 78 | 0.0 | 2.0 | 0.00 | 0.00 | 0.00 | 69 | 1016.2 |
| 20260505201302 | 60 | 75 | 0.0 | 4.0 | 0.00 | 0.00 | 0.00 | 69 | 1016.3 |
| 20260505200801 | 60 | 79 | 1.0 | 4.0 | 0.00 | 0.00 | 0.00 | 69 | 1016.3 |
| 20260505200301 | 60 | 94 | 2.0 | 4.0 | 0.00 | 0.00 | 0.00 | 69 | 1016.4 |
| 20260505195800 | 60 | 99 | 2.0 | 4.0 | 0.00 | 0.00 | 0.00 | 69 | 1016.5 |
| 20260505195301 | 60 | 116 | 2.0 | 4.0 | 0.00 | 0.00 | 0.00 | 69 | 1016.5 |
| 20260505194800 | 60 | 90 | 2.0 | 4.0 | 0.00 | 0.00 | 0.00 | 70 | 1016.5 |
| 20260505194300 | 60 | 54 | 2.0 | 3.0 | 0.00 | 0.00 | 0.00 | 70 | 1016.5 |
| 20260505193800 | 60 | 0 | 0.0 | 3.0 | 0.00 | 0.00 | 0.00 | 69 | 1016.5 |
| 20260505193301 | 60 | 321 | 0.0 | 3.0 | 0.00 | 0.00 | 0.00 | 69 | 1016.6 |
| 20260505192800 | 59 | 329 | 0.0 | 3.0 | 0.00 | 0.00 | 0.00 | 68 | 1016.7 |
| 20260505192519 | 59 | 331 | 1.0 | 3.0 | 0.00 | 0.00 | 0.00 | 69 | 1016.6 |
| 20260505191800 | 59 | 305 | 0.0 | 4.0 | 0.00 | 0.00 | 0.00 | 69 | 1016.6 |
| 20260505191606 | 59 | 23 | 1.0 | 5.0 | 0.00 | 0.00 | 0.00 | 69 | 1016.5 |
| 20260505191501 | 59 | 310 | 1.0 | 5.0 | 0.00 | 0.00 | 0.00 | 70 | 1016.4 |
| 20260505190259 | 59 | 251 | 2.0 | 6.0 | 0.00 | 0.00 | 0.00 | 71 | 1016.4 |
| 20260505185759 | 58 | 278 | 1.0 | 6.0 | 0.00 | 0.00 | 0.00 | 71 | 1016.4 |
| 20260505185259 | 58 | 302 | 2.0 | 5.0 | 0.00 | 0.00 | 0.00 | 71 | 1016.3 |
| 20260505184759 | 58 | 275 | 1.0 | 5.0 | 0.00 | 0.00 | 0.00 | 71 | 1016.4 |
| 20260505184300 | 58 | 282 | 1.0 | 5.0 | 0.00 | 0.00 | 0.00 | 72 | 1016.4 |
| 20260505183759 | 58 | 266 | 3.0 | 5.0 | 0.00 | 0.00 | 0.00 | 73 | 1016.5 |
| 20260505183259 | 58 | 279 | 0.0 | 2.0 | 0.00 | 0.00 | 0.00 | 73 | 1016.5 |
| 20260505182758 | 57 | 282 | 0.0 | 3.0 | 0.00 | 0.00 | 0.00 | 74 | 1016.5 |
| 20260505182258 | 57 | 282 | 1.0 | 3.0 | 0.00 | 0.00 | 0.00 | 74 | 1016.5 |
| 20260505181758 | 57 | 25 | 1.0 | 2.0 | 0.00 | 0.00 | 0.00 | 74 | 1016.6 |
| 20260505181520 | 57 | 41 | 0.0 | 1.0 | 0.00 | 0.00 | 0.00 | 74 | 1016.5 |
| 20260505180758 | 58 | 41 | 0.0 | 4.0 | 0.00 | 0.00 | 0.00 | 74 | 1016.5 |
| 20260505180519 | 58 | 41 | 0.0 | 4.0 | 0.00 | 0.00 | 0.00 | 73 | 1016.5 |
| 20260505175758 | 58 | 234 | 2.0 | 5.0 | 0.00 | 0.00 | 0.00 | 72 | 1016.4 |
| 20260505175523 | 58 | 92 | 1.0 | 5.0 | 0.00 | 0.00 | 0.00 | 70 | 1016.3 |
| 20260505174757 | 58 | 173 | 1.0 | 4.0 | 0.00 | 0.00 | 0.00 | 69 | 1016.4 |
| 20260505174256 | 58 | 278 | 2.0 | 3.0 | 0.00 | 0.00 | 0.00 | 69 | 1016.3 |
| 20260505173757 | 58 | 268 | 0.0 | 3.0 | 0.00 | 0.00 | 0.00 | 68 | 1016.2 |
| 20260505173257 | 58 | 265 | 0.0 | 3.0 | 0.00 | 0.00 | 0.00 | 69 | 1016.0 |
| 20260505172757 | 58 | 281 | 1.0 | 3.0 | 0.00 | 0.00 | 0.00 | 69 | 1016.0 |
| 20260505172516 | 57 | 264 | 1.0 | 4.0 | 0.00 | 0.00 | 0.00 | 69 | 1015.9 |
| 20260505171757 | 57 | 261 | 1.0 | 4.0 | 0.00 | 0.00 | 0.00 | 69 | 1015.9 |
| 20260505171521 | 57 | 176 | 1.0 | 2.0 | 0.00 | 0.00 | 0.00 | 69 | 1015.9 |
| 20260505170757 | 57 | 175 | 0.0 | 1.0 | 0.00 | 0.00 | 0.00 | 70 | 1015.8 |
| 20260505170255 | 57 | 173 | 0.0 | 1.0 | 0.00 | 0.00 | 0.00 | 69 | 1015.9 |
| 20260505165756 | 57 | 173 | 0.0 | 2.0 | 0.00 | 0.00 | 0.00 | 70 | 1015.9 |
| 20260505165515 | 57 | 173 | 1.0 | 2.0 | 0.00 | 0.00 | 0.00 | 69 | 1015.9 |
| 20260505164756 | 57 | 286 | 0.0 | 2.0 | 0.00 | 0.00 | 0.00 | 69 | 1015.9 |
| 20260505164257 | 57 | 283 | 1.0 | 2.0 | 0.00 | 0.00 | 0.00 | 69 | 1015.9 |
| 20260505163756 | 57 | 283 | 0.0 | 2.0 | 0.00 | 0.00 | 0.00 | 69 | 1015.8 |
| 20260505163256 | 57 | 283 | 1.0 | 2.0 | 0.00 | 0.00 | 0.00 | 70 | 1015.8 |
| 20260505163017 | 57 | 283 | 1.0 | 2.0 | 0.00 | 0.00 | 0.00 | 71 | 1015.6 |
| 20260505162255 | 57 | 283 | 0.0 | 2.0 | 0.00 | 0.00 | 0.00 | 71 | 1015.7 |
| 20260505161754 | 56 | 282 | 0.0 | 2.0 | 0.00 | 0.00 | 0.00 | 71 | 1015.8 |
| 20260505161255 | 56 | 281 | 0.0 | 2.0 | 0.00 | 0.00 | 0.00 | 71 | 1015.7 |
| 20260505160755 | 56 | 281 | 0.0 | 2.0 | 0.00 | 0.00 | 0.00 | 72 | 1015.7 |
| 20260505160256 | 56 | 281 | 0.0 | 2.0 | 0.00 | 0.00 | 0.00 | 72 | 1015.7 |
| 20260505153255 | 56 | 281 | 0.0 | 1.0 | 0.00 | 0.00 | 0.00 | 73 | 1015.5 |
| 20260505153016 | 55 | 281 | 0.0 | 1.0 | 0.00 | 0.00 | 0.00 | 73 | 1015.6 |
| 20260505152255 | 55 | 281 | 0.0 | 1.0 | 0.00 | 0.00 | 0.00 | 74 | 1015.4 |
| 20260505151754 | 55 | 281 | 0.0 | 1.0 | 0.00 | 0.00 | 0.00 | 73 | 1015.5 |
| 20260505151254 | 55 | 281 | 0.0 | 1.0 | 0.00 | 0.00 | 0.00 | 73 | 1015.4 |
| 20260505150754 | 55 | 281 | 0.0 | 1.0 | 0.00 | 0.00 | 0.00 | 74 | 1015.5 |
| 20260505150512 | 55 | 281 | 0.0 | 1.0 | 0.00 | 0.00 | 0.00 | 74 | 1015.4 |
| 20260505140252 | 54 | 281 | 0.0 | 2.0 | 0.00 | 0.00 | 0.00 | 75 | 1015.1 |
| 20260505130252 | 53 | 281 | 0.0 | 3.0 | 0.00 | 0.00 | 0.00 | 75 | 1014.7 |
| 20260505124751 | 53 | 281 | 0.0 | 2.0 | 0.00 | 0.00 | 0.00 | 75 | 1014.9 |
| 20260505124249 | 53 | 281 | 0.0 | 2.0 | 0.00 | 0.00 | 0.00 | 75 | 1014.9 |
| 20260505123750 | 53 | 281 | 1.0 | 2.0 | 0.00 | 0.00 | 0.00 | 75 | 1014.9 |
| 20260505123251 | 54 | 281 | 0.0 | 2.0 | 0.00 | 0.00 | 0.00 | 75 | 1014.9 |
| 20260505122750 | 54 | 281 | 0.0 | 2.0 | 0.00 | 0.00 | 0.00 | 75 | 1014.9 |
| 20260505122251 | 54 | 281 | 1.0 | 2.0 | 0.00 | 0.00 | 0.00 | 75 | 1015.0 |
| 20260505121750 | 54 | 281 | 0.0 | 2.0 | 0.00 | 0.00 | 0.00 | 75 | 1015.0 |
| 20260505121250 | 54 | 281 | 0.0 | 1.0 | 0.00 | 0.00 | 0.00 | 74 | 1014.9 |
| 20260505120749 | 54 | 281 | 0.0 | 1.0 | 0.00 | 0.00 | 0.00 | 74 | 1015.0 |
| 20260505120248 | 54 | 281 | 0.0 | 1.0 | 0.00 | 0.00 | 0.00 | 74 | 1015.0 |
| 20260505115749 | 54 | 281 | 0.0 | 2.0 | 0.00 | 0.00 | 0.00 | 74 | 1015.1 |
| 20260505115512 | 54 | 281 | 0.0 | 2.0 | 0.00 | 0.00 | 0.00 | 74 | 1015.0 |
| 20260505114749 | 54 | 281 | 0.0 | 2.0 | 0.00 | 0.00 | 0.00 | 74 | 1015.1 |
| 20260505114250 | 54 | 281 | 0.0 | 2.0 | 0.00 | 0.00 | 0.00 | 74 | 1015.0 |
| 20260505113749 | 54 | 281 | 0.0 | 1.0 | 0.00 | 0.00 | 0.00 | 74 | 1015.0 |
| 20260505113248 | 54 | 281 | 1.0 | 3.0 | 0.00 | 0.00 | 0.00 | 73 | 1015.2 |
| 20260505112749 | 54 | 281 | 0.0 | 3.0 | 0.00 | 0.00 | 0.00 | 73 | 1015.2 |
| 20260505112247 | 54 | 283 | 0.0 | 3.0 | 0.00 | 0.00 | 0.00 | 73 | 1015.1 |
| 20260505112017 | 54 | 286 | 1.0 | 2.0 | 0.00 | 0.00 | 0.00 | 73 | 1015.1 |
| 20260505111247 | 54 | 286 | 1.0 | 2.0 | 0.00 | 0.00 | 0.00 | 72 | 1015.0 |
| 20260505110748 | 54 | 286 | 0.0 | 2.0 | 0.00 | 0.00 | 0.00 | 72 | 1015.1 |
| 20260505110249 | 54 | 286 | 0.0 | 3.0 | 0.00 | 0.00 | 0.00 | 72 | 1015.1 |
| 20260505101747 | 54 | 261 | 1.0 | 5.0 | 0.00 | 0.00 | 0.00 | 70 | 1015.0 |
| 20260505101247 | 54 | 295 | 1.0 | 3.0 | 0.00 | 0.00 | 0.00 | 70 | 1015.0 |
| 20260505101012 | 54 | 298 | 1.0 | 4.0 | 0.00 | 0.00 | 0.00 | 70 | 1015.0 |
| 20260505100247 | 54 | 298 | 2.0 | 4.0 | 0.00 | 0.00 | 0.00 | 70 | 1015.1 |
| 20260505100011 | 54 | 288 | 1.0 | 4.0 | 0.00 | 0.00 | 0.00 | 70 | 1015.1 |
| 20260505095246 | 54 | 271 | 1.0 | 4.0 | 0.00 | 0.00 | 0.00 | 69 | 1015.2 |
| 20260505094747 | 54 | 258 | 3.0 | 4.0 | 0.00 | 0.00 | 0.00 | 69 | 1015.1 |
| 20260505094247 | 54 | 258 | 2.0 | 4.0 | 0.00 | 0.00 | 0.00 | 69 | 1015.2 |
| 20260505093746 | 55 | 272 | 2.0 | 3.0 | 0.00 | 0.00 | 0.00 | 68 | 1015.2 |
| 20260505093247 | 55 | 266 | 1.0 | 3.0 | 0.00 | 0.00 | 0.00 | 68 | 1015.3 |
| 20260505092746 | 55 | 290 | 1.0 | 4.0 | 0.00 | 0.00 | 0.00 | 68 | 1015.4 |
| 20260505092246 | 55 | 258 | 3.0 | 5.0 | 0.00 | 0.00 | 0.00 | 68 | 1015.4 |
| 20260505091744 | 55 | 281 | 1.0 | 6.0 | 0.00 | 0.00 | 0.00 | 67 | 1015.3 |
| 20260505091245 | 55 | 264 | 2.0 | 6.0 | 0.00 | 0.00 | 0.00 | 67 | 1015.3 |
| 20260505090745 | 55 | 262 | 3.0 | 7.0 | 0.00 | 0.00 | 0.00 | 66 | 1015.4 |
| 20260505090245 | 55 | 261 | 3.0 | 7.0 | 0.00 | 0.00 | 0.00 | 66 | 1015.4 |
| 20260505085745 | 55 | 293 | 3.0 | 7.0 | 0.00 | 0.00 | 0.00 | 65 | 1015.5 |
| 20260505085726 | 55 | 261 | 2.0 | 6.0 | 0.00 | 0.00 | 0.00 | 65 | 1015.5 |
| 20260505084745 | 55 | 293 | 2.0 | 6.0 | 0.00 | 0.00 | 0.00 | 66 | 1015.6 |
| 20260505084245 | 55 | 286 | 2.0 | 6.0 | 0.00 | 0.00 | 0.00 | 66 | 1015.5 |
| 20260505083745 | 55 | 279 | 2.0 | 7.0 | 0.00 | 0.00 | 0.00 | 67 | 1015.6 |
| 20260505083243 | 55 | 234 | 2.0 | 7.0 | 0.00 | 0.00 | 0.00 | 67 | 1015.7 |
| 20260505082744 | 55 | 226 | 2.0 | 5.0 | 0.00 | 0.00 | 0.00 | 67 | 1015.8 |
| 20260505082245 | 55 | 329 | 2.0 | 6.0 | 0.00 | 0.00 | 0.00 | 67 | 1015.8 |
| 20260505081745 | 55 | 271 | 2.0 | 6.0 | 0.00 | 0.00 | 0.00 | 67 | 1015.8 |
| 20260505081725 | 55 | 240 | 2.0 | 6.0 | 0.00 | 0.00 | 0.00 | 67 | 1015.8 |
| 20260505080745 | 55 | 274 | 3.0 | 7.0 | 0.00 | 0.00 | 0.00 | 66 | 1015.8 |
| 20260505080244 | 56 | 290 | 3.0 | 7.0 | 0.00 | 0.00 | 0.00 | 66 | 1015.8 |
| 20260505080004 | 56 | 264 | 3.0 | 6.0 | 0.00 | 0.00 | 0.00 | 66 | 1015.8 |
| 20260505075244 | 56 | 266 | 1.0 | 9.0 | 0.00 | 0.00 | 0.00 | 66 | 1015.9 |
| 20260505074745 | 56 | 258 | 3.0 | 9.0 | 0.00 | 0.00 | 0.00 | 66 | 1016.0 |
| 20260505074243 | 56 | 307 | 3.0 | 6.0 | 0.00 | 0.00 | 0.00 | 67 | 1015.9 |
| 20260505073743 | 56 | 259 | 2.0 | 5.0 | 0.00 | 0.00 | 0.00 | 67 | 1015.8 |
| 20260505073243 | 56 | 254 | 2.0 | 5.0 | 0.00 | 0.00 | 0.00 | 67 | 1015.8 |
| 20260505072743 | 56 | 252 | 1.0 | 7.0 | 0.00 | 0.00 | 0.00 | 68 | 1015.8 |
| 20260505072507 | 56 | 261 | 2.0 | 7.0 | 0.00 | 0.00 | 0.00 | 68 | 1015.8 |
| 20260505071743 | 56 | 296 | 2.0 | 5.0 | 0.00 | 0.00 | 0.00 | 69 | 1015.8 |
| 20260505071458 | 56 | 275 | 1.0 | 5.0 | 0.00 | 0.00 | 0.00 | 70 | 1015.7 |
| 20260505070742 | 56 | 290 | 2.0 | 5.0 | 0.00 | 0.00 | 0.00 | 70 | 1015.6 |
| 20260505070242 | 56 | 0 | 1.0 | 3.0 | 0.00 | 0.00 | 0.00 | 70 | 1015.6 |
| 20260505070008 | 56 | 247 | 1.0 | 3.0 | 0.00 | 0.00 | 0.00 | 71 | 1015.5 |
| 20260505065250 | 56 | 264 | 2.0 | 5.0 | 0.00 | 0.00 | 0.00 | 71 | 1015.4 |
| 20260505065242 | 56 | 289 | 2.0 | 5.0 | 0.00 | 0.00 | 0.00 | 71 | 1015.4 |
| 20260505064506 | 56 | 300 | 1.0 | 2.0 | 0.00 | 0.00 | 0.00 | 71 | 1015.6 |
| 20260505064007 | 56 | 303 | 0.0 | 2.0 | 0.00 | 0.00 | 0.00 | 70 | 1015.5 |
| 20260505063243 | 56 | 303 | 0.0 | 3.0 | 0.00 | 0.00 | 0.00 | 72 | 1015.5 |
| 20260505062742 | 56 | 63 | 1.0 | 3.0 | 0.00 | 0.00 | 0.00 | 72 | 1015.5 |
| 20260505062510 | 56 | 289 | 0.0 | 3.0 | 0.00 | 0.00 | 0.00 | 72 | 1015.5 |
| 20260505061741 | 56 | 286 | 1.0 | 3.0 | 0.00 | 0.00 | 0.00 | 72 | 1015.3 |
| 20260505061242 | 57 | 289 | 0.0 | 4.0 | 0.00 | 0.00 | 0.00 | 71 | 1015.3 |
| 20260505060742 | 57 | 276 | 0.0 | 7.0 | 0.00 | 0.00 | 0.00 | 71 | 1015.3 |
| 20260505060241 | 57 | 264 | 2.0 | 7.0 | 0.00 | 0.00 | 0.00 | 71 | 1015.3 |
| 20260505055742 | 57 | 271 | 2.0 | 7.0 | 0.00 | 0.00 | 0.00 | 71 | 1015.3 |
| 20260505055241 | 57 | 286 | 2.0 | 4.0 | 0.00 | 0.00 | 0.00 | 71 | 1015.4 |
| 20260505054742 | 57 | 247 | 2.0 | 3.0 | 0.00 | 0.00 | 0.00 | 71 | 1015.4 |
| 20260505054241 | 57 | 230 | 1.0 | 3.0 | 0.00 | 0.00 | 0.00 | 71 | 1015.5 |
| 20260505053740 | 58 | 272 | 1.0 | 4.0 | 0.00 | 0.00 | 0.00 | 71 | 1015.6 |
| 20260505053240 | 58 | 269 | 2.0 | 5.0 | 0.00 | 0.00 | 0.00 | 71 | 1015.6 |
| 20260505052741 | 58 | 275 | 3.0 | 6.0 | 0.00 | 0.00 | 0.00 | 72 | 1015.5 |
| 20260505052241 | 58 | 269 | 1.0 | 6.0 | 0.00 | 0.00 | 0.00 | 72 | 1015.6 |
| 20260505051740 | 58 | 247 | 1.0 | 7.0 | 0.00 | 0.00 | 0.00 | 72 | 1015.8 |
| 20260505051506 | 58 | 47 | 3.0 | 7.0 | 0.00 | 0.00 | 0.00 | 71 | 1015.8 |
| 20260505050740 | 58 | 278 | 0.0 | 5.0 | 0.00 | 0.00 | 0.00 | 70 | 1015.8 |
| 20260505050240 | 58 | 275 | 1.0 | 7.0 | 0.00 | 0.00 | 0.00 | 70 | 1015.8 |
| 20260505041737 | 58 | 251 | 2.0 | 6.0 | 0.00 | 0.00 | 0.00 | 67 | 1015.4 |
| 20260505041238 | 58 | 230 | 0.0 | 3.0 | 0.00 | 0.00 | 0.00 | 68 | 1015.3 |
| 20260505040739 | 58 | 6 | 1.0 | 6.0 | 0.00 | 0.00 | 0.00 | 68 | 1015.3 |
| 20260505040238 | 59 | 59 | 1.0 | 7.0 | 0.00 | 0.00 | 0.00 | 68 | 1015.2 |
| 20260505035739 | 59 | 30 | 2.0 | 7.0 | 0.00 | 0.00 | 0.00 | 68 | 1015.2 |
| 20260505035238 | 59 | 302 | 1.0 | 5.0 | 0.00 | 0.00 | 0.00 | 67 | 1015.1 |
| 20260505035000 | 59 | 262 | 1.0 | 6.0 | 0.00 | 0.00 | 0.00 | 67 | 1015.0 |
| 20260505034238 | 59 | 262 | 2.0 | 6.0 | 0.00 | 0.00 | 0.00 | 66 | 1015.0 |
| 20260505033738 | 59 | 262 | 2.0 | 4.0 | 0.00 | 0.00 | 0.00 | 67 | 1014.9 |
| 20260505033237 | 59 | 285 | 1.0 | 4.0 | 0.00 | 0.00 | 0.00 | 67 | 1014.8 |
| 20260505032737 | 59 | 52 | 1.0 | 4.0 | 0.00 | 0.00 | 0.00 | 67 | 1014.7 |
| 20260505032238 | 59 | 338 | 1.0 | 6.0 | 0.00 | 0.00 | 0.00 | 67 | 1014.6 |
| 20260505031737 | 60 | 266 | 2.0 | 6.0 | 0.00 | 0.00 | 0.00 | 67 | 1014.5 |
| 20260505031238 | 60 | 272 | 2.0 | 6.0 | 0.00 | 0.00 | 0.00 | 66 | 1014.5 |
| 20260505030737 | 60 | 72 | 1.0 | 6.0 | 0.00 | 0.00 | 0.00 | 66 | 1014.6 |
| 20260505030238 | 60 | 151 | 1.0 | 5.0 | 0.00 | 0.00 | 0.00 | 66 | 1014.6 |
| 20260505030001 | 60 | 149 | 1.0 | 5.0 | 0.00 | 0.00 | 0.00 | 65 | 1014.6 |
| 20260505025236 | 60 | 334 | 2.0 | 6.0 | 0.00 | 0.00 | 0.00 | 64 | 1014.5 |
| 20260505024959 | 60 | 219 | 2.0 | 6.0 | 0.00 | 0.00 | 0.00 | 63 | 1014.7 |
| 20260505024236 | 60 | 82 | 1.0 | 6.0 | 0.00 | 0.00 | 0.00 | 63 | 1014.7 |
| 20260505023736 | 60 | 173 | 1.0 | 6.0 | 0.00 | 0.00 | 0.00 | 63 | 1014.6 |
| 20260505023236 | 60 | 63 | 1.0 | 5.0 | 0.00 | 0.00 | 0.00 | 63 | 1014.5 |
| 20260505023002 | 60 | 0 | 2.0 | 9.0 | 0.00 | 0.00 | 0.00 | 63 | 1014.6 |
| 20260505022500 | 60 | 204 | 1.0 | 9.0 | 0.00 | 0.00 | 0.00 | 63 | 1014.7 |
| 20260505021737 | 60 | 39 | 2.0 | 7.0 | 0.00 | 0.00 | 0.00 | 62 | 1014.5 |
| 20260505021236 | 61 | 141 | 1.0 | 7.0 | 0.00 | 0.00 | 0.00 | 62 | 1014.4 |
| 20260505020736 | 61 | 300 | 2.0 | 9.0 | 0.00 | 0.00 | 0.00 | 62 | 1014.8 |
| 20260505020235 | 61 | 244 | 2.0 | 9.0 | 0.00 | 0.00 | 0.00 | 61 | 1014.5 |
| 20260505015736 | 61 | 248 | 2.0 | 6.0 | 0.00 | 0.00 | 0.00 | 61 | 1014.5 |
| 20260505015235 | 61 | 223 | 3.0 | 6.0 | 0.00 | 0.00 | 0.00 | 60 | 1014.5 |
| 20260505014736 | 62 | 282 | 3.0 | 6.0 | 0.00 | 0.00 | 0.00 | 60 | 1014.5 |
| 20260505014236 | 62 | 281 | 0.0 | 7.0 | 0.00 | 0.00 | 0.00 | 59 | 1014.5 |
| 20260505013735 | 62 | 238 | 2.0 | 7.0 | 0.00 | 0.00 | 0.00 | 59 | 1014.5 |
| 20260505013234 | 62 | 275 | 2.0 | 6.0 | 0.00 | 0.00 | 0.00 | 58 | 1014.4 |
| 20260505012734 | 63 | 62 | 2.0 | 10.0 | 0.00 | 0.00 | 0.00 | 57 | 1014.4 |
| 20260505012457 | 63 | 55 | 2.0 | 10.0 | 0.00 | 0.00 | 0.00 | 57 | 1014.5 |
| 20260505011734 | 63 | 30 | 3.0 | 7.0 | 0.00 | 0.00 | 0.00 | 57 | 1014.6 |
| 20260505011235 | 63 | 54 | 2.0 | 5.0 | 0.00 | 0.00 | 0.00 | 55 | 1014.6 |
| 20260505010734 | 63 | 240 | 1.0 | 7.0 | 0.00 | 0.00 | 0.00 | 55 | 1014.6 |
| 20260505010235 | 63 | 354 | 2.0 | 7.0 | 0.00 | 0.00 | 0.00 | 56 | 1014.6 |
| 20260505005734 | 63 | 330 | 2.0 | 6.0 | 0.00 | 0.00 | 0.00 | 56 | 1014.7 |
| 20260505005234 | 63 | 247 | 2.0 | 6.0 | 0.00 | 0.00 | 0.00 | 57 | 1014.7 |
| 20260505004733 | 62 | 245 | 2.0 | 7.0 | 0.00 | 0.00 | 0.00 | 57 | 1014.8 |
| 20260505004233 | 63 | 237 | 2.0 | 7.0 | 0.00 | 0.00 | 0.00 | 57 | 1014.9 |
| 20260505003733 | 63 | 330 | 2.0 | 5.0 | 0.00 | 0.00 | 0.00 | 58 | 1014.9 |
| 20260505003234 | 63 | 148 | 2.0 | 6.0 | 0.00 | 0.00 | 0.00 | 58 | 1014.8 |
| 20260505002733 | 63 | 254 | 2.0 | 6.0 | 0.00 | 0.00 | 0.00 | 58 | 1014.9 |
| 20260505002234 | 63 | 272 | 3.0 | 7.0 | 0.00 | 0.00 | 0.00 | 58 | 1014.8 |
| 20260505001733 | 63 | 235 | 2.0 | 11.0 | 0.00 | 0.00 | 0.00 | 59 | 1014.8 |
| 20260505001233 | 63 | 298 | 5.0 | 11.0 | 0.00 | 0.00 | 0.00 | 58 | 1014.7 |
| 20260505000733 | 62 | 313 | 2.0 | 4.0 | 0.00 | 0.00 | 0.00 | 59 | 1014.7 |
| 20260505000233 | 62 | 30 | 1.0 | 7.0 | 0.00 | 0.00 | 0.00 | 58 | 1014.7 |
| 20260504235954 | 63 | 283 | 2.0 | 7.0 | 0.00 | 0.00 | 0.00 | 58 | 1014.7 |
| 20260504235232 | 63 | 314 | 1.0 | 7.0 | 0.00 | 0.00 | 0.00 | 58 | 1014.8 |
| 20260504234734 | 63 | 59 | 1.0 | 6.0 | 0.00 | 0.00 | 0.00 | 57 | 1014.7 |
| 20260504234233 | 63 | 224 | 2.0 | 6.0 | 0.00 | 0.00 | 0.00 | 57 | 1014.7 |
| 20260504233955 | 63 | 265 | 2.0 | 6.0 | 0.00 | 0.00 | 0.00 | 56 | 1014.6 |
| 20260504233457 | 64 | 264 | 2.0 | 6.0 | 0.00 | 0.00 | 0.00 | 56 | 1014.7 |
| 20260504232949 | 64 | 324 | 2.0 | 6.0 | 0.00 | 0.00 | 0.00 | 56 | 1014.7 |
| 20260504232231 | 64 | 268 | 2.0 | 7.0 | 0.00 | 0.00 | 0.00 | 56 | 1014.7 |
| 20260504231732 | 64 | 258 | 4.0 | 7.0 | 0.00 | 0.00 | 0.00 | 56 | 1014.6 |
| 20260504231232 | 64 | 262 | 3.0 | 7.0 | 0.00 | 0.00 | 0.00 | 56 | 1014.6 |
| 20260504230731 | 64 | 357 | 2.0 | 6.0 | 0.00 | 0.00 | 0.00 | 58 | 1014.7 |
| 20260504230455 | 64 | 0 | 1.0 | 5.0 | 0.00 | 0.00 | 0.00 | 58 | 1014.6 |
| 20260504225731 | 63 | 281 | 1.0 | 6.0 | 0.00 | 0.00 | 0.00 | 58 | 1014.7 |
| 20260504225232 | 63 | 289 | 2.0 | 6.0 | 0.00 | 0.00 | 0.00 | 58 | 1014.7 |
| 20260504224952 | 63 | 137 | 2.0 | 6.0 | 0.00 | 0.00 | 0.00 | 58 | 1014.6 |
| 20260504224230 | 63 | 17 | 1.0 | 7.0 | 0.00 | 0.00 | 0.00 | 58 | 1014.7 |
| 20260504223950 | 63 | 265 | 2.0 | 7.0 | 0.00 | 0.00 | 0.00 | 57 | 1014.8 |
| 20260504223230 | 63 | 0 | 2.0 | 9.0 | 0.00 | 0.00 | 0.00 | 57 | 1014.8 |
| 20260504222949 | 64 | 285 | 2.0 | 9.0 | 0.00 | 0.00 | 0.00 | 57 | 1014.8 |
| 20260504222230 | 64 | 292 | 2.0 | 3.0 | 0.00 | 0.00 | 0.00 | 56 | 1014.8 |